This is the latest recevied weather packets stored in our database for station/object KE0TNI-13. If no packets are shown the sender has not sent any weather packets the latest 1 day(s).
| Time | Temp. | Humidity | Pressure | Rain* | Wind** | Luminosity | Snow |
|---|---|---|---|---|---|---|---|
| 1778014704 | -1.11° C | 95% | 1013.2 hPa | 0 mm | 0 m/s | 73 W/m² | - |
| 1778014402 | -1.11° C | 95% | 1013.1 hPa | 0 mm | 0 m/s | 80 W/m² | - |
| 1778014098 | -1.11° C | 95% | 1013.1 hPa | 0.51 mm | 0 m/s | 103 W/m² | - |
| 1778013797 | -1.11° C | 95% | 1013.2 hPa | 0.51 mm | 0.89 m/s, 157° | 55 W/m² | - |
| 1778013494 | -1.11° C | 95% | 1013 hPa | 0.51 mm | 0 m/s | 112 W/m² | - |
| 1778013190 | -0.56° C | 95% | 1013.1 hPa | 0.51 mm | 0 m/s | 101 W/m² | - |
| 1778012886 | -1.11° C | 95% | 1013.7 hPa | 0 mm | 0.45 m/s, 74° | 88 W/m² | - |
| 1778012583 | -1.11° C | 95% | 1013.5 hPa | 0.51 mm | 0.45 m/s, 178° | 117 W/m² | - |
| 1778012279 | -0.56° C | 95% | 1013.6 hPa | 0.51 mm | 0.45 m/s, 254° | 87 W/m² | - |
| 1778011977 | -0.56° C | 95% | 1013.2 hPa | 0 mm | 0 m/s | 102 W/m² | - |
| 1778011675 | -0.56° C | 95% | 1013.5 hPa | 0 mm | 0.45 m/s, 41° | 100 W/m² | - |
| 1778011372 | -0.56° C | 94% | 1013.4 hPa | 0 mm | 0.89 m/s, 122° | 119 W/m² | - |
| 1778011067 | -0.56° C | 94% | 1013.5 hPa | 0 mm | 0 m/s | 124 W/m² | - |
| 1778010765 | -0.56° C | 95% | 1013.4 hPa | 0 mm | 0.89 m/s, 251° | 91 W/m² | - |
| 1778010462 | -0.56° C | 94% | 1013.4 hPa | 0 mm | 0 m/s | 135 W/m² | - |
| 1778010158 | -0.56° C | 94% | 1013.5 hPa | 0 mm | 0.89 m/s, 154° | 112 W/m² | - |
| 1778009854 | -0.56° C | 95% | 1013.5 hPa | 0 mm | 0.89 m/s, 145° | 119 W/m² | - |
| 1778009552 | -0.56° C | 95% | 1013.2 hPa | 0 mm | 0 m/s | 64 W/m² | - |
| 1778009250 | -1.11° C | 95% | 1013.5 hPa | 0 mm | 0 m/s | 66 W/m² | - |
| 1778008948 | -1.11° C | 95% | 1013.6 hPa | 0 mm | 0.89 m/s, 131° | 83 W/m² | - |
| 1778008645 | -0.56° C | 95% | 1013.4 hPa | 0 mm | 0.45 m/s, 201° | 68 W/m² | - |
| 1778008344 | -0.56° C | 95% | 1013.5 hPa | 0 mm | 0.45 m/s, 192° | 68 W/m² | - |
| 1778008040 | -0.56° C | 95% | 1013.7 hPa | 0 mm | 0.45 m/s, 164° | 89 W/m² | - |
| 1778007739 | -0.56° C | 95% | 1013.6 hPa | 0.51 mm | 0.89 m/s, 210° | 125 W/m² | - |
| 1778007436 | -1.11° C | 95% | 1013.9 hPa | 0.51 mm | 0 m/s | 114 W/m² | - |
* Rain latest hour (hover to see other rain measurements)
** Current wind speed in m/s (hover to see current wind gust speed)